Orbital Elements
Epoch 2021 July 5.0 TT = JDT 2459400.5
T 2022 Apr. 23.45616 TT Rudenko
q 2.1124360 (2000.0) P Q
n 0.13909587 Peri. 58.13548 +0.95985727 +0.26260875
a 3.6891522 Node 286.48041 -0.27928524 +0.86230058
e 0.4273925 Incl. 5.89839 -0.02595735 +0.43298309
P 7.09
From 879 observations 2008 July 2-2021 June 20, mean residual 0".7.
Nongravitational parameters A1 = +0.11, A2 = -0.0625.
|